Location: Nitra
(0.0000°N, 18.0833°E)
Time: 15:36:15
(UTC+02:00)

Daily predictions for brighter satellites

Satellite Brightness Start Highest point End
(mag) Time Altitude Azimuth Time Altitude Azimuth Time Altitude Azimuth
Cosmos 1766 Rocket 3.6 19:04:25 10° N 19:08:45 87° W 19:13:09 10° S
MOS 1-B Rocket 4.2 19:03:11 10° SSE 19:09:07 87° WSW 19:15:56 10° NNW
Aureole 1 Rocket 3.4 19:07:51 10° NNE 19:10:59 33° E 19:14:51 10° SE
ALOS 2.3 19:06:46 10° SSE 19:11:24 65° ENE 19:16:00 10° N
Cosmos 1300 2.7 19:08:34 10° S 19:12:22 62° E 19:16:07 10° NNE
Cosmos 2219 Rocket 2.2 19:07:15 10° S 19:12:51 62° ESE 19:18:25 10° NNE
Cosmos 2237 Rocket 3.2 19:09:58 10° SSE 19:14:24 24° ESE 19:18:49 10° NE
Skynet4D Del rocket 4.2 19:11:45 10° NW 19:16:49 40° NNE 19:21:45 10° E
Landsat 4 3.8 19:13:19 10° N 19:17:03 83° WNW 19:20:47 10° SSW
Cosmos 1346 Rocket 3.9 19:18:21 10° SSW 19:22:15 51° W 19:26:11 10° N
Cosmos 1500 Rocket 4.3 19:19:52 10° NNE 19:23:49 32° E 19:27:45 10° SSE
Ariane H10+ 1.7 19:24:02 10° WNW 19:26:09 35° NNE 19:29:59 12° E
Cosmos 2263 Rocket 2.9 19:22:22 10° NNE 19:27:24 33° ENE 19:32:24 10° SE
Cosmos 1818 3.7 19:26:52 10° NNW 19:32:16 77° WSW 19:37:41 10° SSE
Cosmos 1437 3.9 19:32:34 10° SSW 19:35:37 46° W 19:38:40 10° N
Cosmos 1455 3.8 19:37:00 16° ENE 19:37:00 16° ENE 19:38:36 10° NE
IRS-1A Rocket 4.4 19:31:35 10° S 19:37:25 83° WSW 19:43:05 10° NNW
Cosmos 2058 3.1 19:34:33 10° N 19:38:45 74° W 19:42:57 10° S
OAO 3 Rocket 3.2 19:40:27 10° SW 19:45:17 81° NW 19:49:51 11° NE
Cosmos 2154 Rocket 4.0 19:40:36 10° S 19:46:48 57° E 19:52:55 10° NNE
FREGAT/IRIS 4.1 19:48:18 21° NE 19:48:18 21° NE 19:49:53 10° NNE
SPOT 3 Rocket 3.5 19:44:44 10° SSE 19:49:52 60° ENE 19:54:57 10° N
GPS 2-12 Rocket1 3.1 19:45:20 10° WNW 19:50:02 72° SSW 19:52:29 27° ESE
Ariane H10-3 1.1 19:47:10 10° W 19:50:07 52° S 19:50:31 43° SE
Ariane H10+ 3.9 19:46:39 10° WNW 19:51:05 64° N 19:59:46 19° E
Cosmos 1048 Rocket 4.0 19:46:02 10° N 19:51:17 66° ENE 19:56:36 10° SSE
Cosmos 1269 Rocket 4.3 19:46:55 10° N 19:51:54 43° ENE 19:55:07 20° SE
Cosmos 2344 4.3 19:47:31 10° S 19:55:51 34° ESE 20:02:44 10° NE
ARIANE 3 DEB 4.0 19:51:00 10° WSW 19:57:49 38° S 19:59:20 28° SSE
Meteor 2-21 4.4 19:57:29 10° S 20:03:35 90° NW 20:09:41 10° N
SL-16 R/B 4.1 19:59:42 10° SSE 20:00:14 12° SSE 20:00:14 12° SSE
GPS 2-15 Rocket1 4.3 19:59:48 10° W 20:04:26 40° NNW 20:07:34 18° NE
Hubble Space Telescope 2.0 20:02:17 10° W 20:06:09 38° NNW 20:08:39 19° NNE
Cosmos 1340 4.3 20:05:29 10° SSW 20:08:58 35° W 20:12:27 10° NNW
Cosmos 2341 Rocket 4.0 20:03:21 10° S 20:09:38 59° E 20:15:52 10° NNE
NOSS 3-1 (C) 4.2 20:01:12 10° NNW 20:09:47 88° WSW 20:18:02 12° SSE
NOSS 3-1 (A) 4.2 20:02:10 10° NNW 20:10:39 66° ENE 20:16:20 24° SE
Thor Agena Rocket 3.9 20:05:48 10° N 20:11:01 68° WNW 20:16:18 10° SSW
ARIANE 5 DEB (SYLDA) 3.6 20:01:14 10° W 20:11:05 77° S 20:12:32 47° ESE
H-2A R/B 3.8 20:07:55 10° S 20:11:27 44° W 20:14:58 10° NNW
Cosmos 962 Rocket 4.3 20:06:30 10° S 20:12:34 66° E 20:18:36 10° NNE
Tiangong 2 1.9 20:13:46 10° NW 20:16:21 50° W 20:16:21 50° W
Cosmos 1328 Rocket 3.4 20:16:02 47° SSE 20:17:10 71° E 20:21:32 10° N
ARIANE 5 R/B 4.3 20:16:46 10° WSW 20:20:34 36° S 20:20:34 36° S
Cosmos 1295 Rocket 4.4 20:14:28 10° S 20:20:47 73° E 20:27:05 10° N
Abrixas rocket 3.9 20:20:10 10° WNW 20:22:49 28° WSW 20:22:49 28° WSW
Ariane H10+ 3.6 20:23:51 10° WSW 20:28:36 59° SSE 20:34:42 36° ESE
Ariane H10+ 3.6 20:23:51 10° WSW 20:28:36 59° SSE 20:34:43 36° ESE
GEOS 3 Rocket 3.4 20:26:38 34° NE 20:28:56 81° ESE 20:34:01 10° SSW
USA 267 3.3 20:24:55 10° NNE 20:31:25 75° NW 20:37:57 10° SW
BLOCK DM-SL R/B 2.9 20:13:56 10° W 20:34:29 73° N 20:35:19 60° NE
SL-8 Rocket 4.2 20:37:17 53° NE 20:37:17 53° NE 20:42:19 10° NNE
Centaur AC-69 3.5 20:24:40 10° WSW 20:37:45 84° NNW 20:37:59 80° NNE
SWIFT 3.4 20:36:27 10° W 20:39:50 43° WNW 20:39:50 43° WNW
Palapa 6 Rocket 3.8 20:38:51 10° WSW 20:43:36 51° NW 20:43:36 51° NW
Cosmos 1371 Rocket 4.4 20:43:46 10° SSW 20:48:56 62° WNW 20:54:08 10° N
Cosmos 2237 Rocket 4.4 20:53:50 10° SW 20:58:10 23° WNW 21:02:29 10° NNW
Envisat 4.0 21:00:04 43° NW 21:00:04 43° NW 21:03:41 10° NNW
BLOCK DM-SL R/B 4.1 20:38:20 10° W 21:00:12 90° NNW 21:00:50 77° E
